weather.gov     
National Weather Service

Regional Weather Roundup
NWS Homepage
This page is being discontinued on March 12, 2014.
The same data is available at this site. Please update your bookmarks.
Thank you, and we apologize for the inconvenience.
Please send an email to SR-SRH.Webmaster@noaa.gov with any concerns.


Current Version
Previous Version:    01  02  03  04  05  06  07  08  09  10  11  12  13  14  15  16  17  18  19  20  21  22  23  24  25  26  27  28  29  30  
   31  32  33  34  35  36  37  38  39  40  41  42  43  44  45  46  47  48  49  50  51  52  53  54  55  56  57  58  59  60  
[Printable]
062
ASUS43 KMKX 301300
RWRWI

WISCONSIN REGIONAL WEATHER ROUNDUP
NATIONAL WEATHER SERVICE MILWAUKEE/SULLIVAN WI
800 AM CDT THU OCT 30 2014

NOTE: "FAIR" INDICATES FEW OR NO CLOUDS BELOW 12,000 FEET WITH NO
SIGNIFICANT WEATHER AND/OR OBSTRUCTIONS TO VISIBILITY.

WIZ001-002-006>008-014>016-023>028-301400-
NORTHWEST WISCONSIN

CITY           SKY/WX    TMP DP  RH WIND       PRES   REMARKS
SUPERIOR ARPT  CLOUDY    36  33  90 CALM      30.07S
ASHLAND        CLOUDY    38  33  82 SW5       30.06S WCI  34
HAYWARD        CLOUDY    36  33  89 CALM      30.05S
SIREN          CLOUDY    35  33  94 CALM      30.05F
CUMBERLAND     CLOUDY    34  32  93 CALM      30.05S
RICE LAKE      CLOUDY    34  33  95 CALM      30.07R
CHETEK         CLOUDY    34  33  95 CALM      30.06S
LADYSMITH      MOCLDY    35  33  93 CALM      30.06S
EAU CLAIRE     NOT AVBL
MENOMONIE      CLOUDY    36  34  91 CALM      30.06S
NEW RICHMOND   CLOUDY    38  35  90 CALM      30.04S
OSCEOLA        CLOUDY    37  37  97 CALM      30.08R
$$

WIZ003>005-009-010-017-018-301400-
NORTH CENTRAL WISCONSIN

CITY           SKY/WX    TMP DP  RH WIND       PRES   REMARKS
MANITOWISH WTR CLOUDY    36  33  90 W6        30.01F WCI  31
ARBOR VITAE    CLOUDY    37  33  88 CALM      30.02F
WOODRUFF       CLOUDY    37  33  88 CALM      30.02F
RHINELANDER    CLOUDY    36  32  85 SW3       30.03F
EAGLE RIVER    CLOUDY    36  31  83 CALM      30.02S
LAND O LAKES   CLOUDY    36  33  92 CALM      30.02F
PHILLIPS       CLOUDY    35  32  88 CALM      30.03S
TOMAHAWK       CLOUDY    34  31  90 CALM      30.04F
MEDFORD        CLOUDY    32  32  99 S5        30.04S WCI  28
MERRILL        CLOUDY    32  32  99 CALM      30.05S
$$

WIZ029-030-035-036-043>047-301400-
CENTRAL WISCONSIN

CITY           SKY/WX    TMP DP  RH WIND       PRES   REMARKS
WAUSAU         CLOUDY    34  32  92 E3        30.04F
MOSINEE        PTCLDY    32  32 100 CALM      30.06F
MARSHFIELD     CLOUDY    33  31  92 SW3       30.06S
STEVENS POINT  MOCLDY    30  29  98 CALM      30.07S
WAUPACA        CLOUDY    35  33  94 CALM      30.08S
WAUTOMA        NOT AVBL
WISC RAPIDS    MOCLDY    33  31  92 SW3       30.09S
CAMP DOUGLAS   NOT AVBL
$$

WIZ011>013-019>022-031-037>040-048>050-301400-
NORTHEAST WISCONSIN

CITY           SKY/WX    TMP DP  RH WIND       PRES   REMARKS
ANTIGO         CLOUDY    33  32  98 CALM      30.05S
SHAWANO        CLOUDY    37  34  89 CALM      30.08S
OCONTO         MOCLDY    37  35  96 CALM      30.07S
STURGEON BAY   CLOUDY    39  34  81 S5        30.08S
GREEN BAY      CLOUDY    38  35  89 SW3       30.09R
MANITOWOC      NOT AVBL
APPLETON       MOCLDY    36  36 100 SW6       30.08S WCI  31
CLINTONVILLE   CLOUDY    34  32  93 CALM      30.08R
OSHKOSH        CLOUDY    36  33  89 SW5       30.08S WCI  32
$$

WIZ032>034-041-042-053>061-301400-
SOUTHWEST WISCONSIN

CITY           SKY/WX    TMP DP  RH WIND       PRES   REMARKS
LA CROSSE      CLOUDY    38  34  85 SE6       30.07F WCI  33
SPARTA         CLOUDY    32  31  96 CALM      30.09S
VIROQUA        CLOUDY    36  33  88 S3        30.07S
BOSCOBEL       FOG       33  31  92 CALM      30.10F VSB 1/4
PRAIRIE DU CHI CLOUDY    34  32  92 SE3       30.09S
PLATTEVILLE    CLOUDY    35  33  90 CALM      30.09F
$$

WIZ056-057-062-063-064-067-068-301400-
SOUTH CENTRAL WISCONSIN

CITY           SKY/WX    TMP DP  RH WIND       PRES   REMARKS
REEDSBURG      CLOUDY    31  31  99 CALM      30.09S
BARABOO/DELLS  CLOUDY    34  32  92 CALM      30.08F
LONE ROCK      NOT AVBL
MINERAL POINT  CLOUDY    36  32  87 CALM      30.09S
MADISON        CLOUDY    36  33  89 CALM      30.10S
MIDDLETON      CLOUDY    37  33  84 CALM      30.10R
WATERTOWN      MOCLDY    31  31  99 CALM      30.09F
MONROE         CLOUDY    34  32  93 S6        30.09S WCI  29
JANESVILLE     PTCLDY    34  32  93 CALM      30.11R
$$

WIZ051-052-058>065-066-070>072-301400-
SOUTHEAST WISCONSIN

CITY           SKY/WX    TMP DP  RH WIND       PRES   REMARKS
MILWAUKEE      MOCLDY    37  32  82 CALM      30.10F
WAUKESHA       PTCLDY    30  28  93 CALM      30.11F
MILWAUKEE/TIMM CLEAR     34  30  86 CALM      30.11S
RACINE         PTCLDY    36  32  85 SW3       30.13S
BURLINGTON     PTCLDY    30  29  98 CALM      30.11F
KENOSHA        PTCLDY    35  32  88 CALM      30.11F
FOND DU LAC    MOCLDY    34  31  88 S3        30.09F
SHEBOYGAN      MOCLDY    35  31  85 CALM      30.09F
WEST BEND      PTCLDY    32  30  93 CALM      30.09F
JUNEAU         MOCLDY    31  30  95 CALM      30.10S
$$

LSZ147-162-301400-
LAKE SUPERIOR

STATION/POSITION TIME  TEMP    WIND        PRES    WAVE
                       AIR SEA DIR/SP/G            HT/PER
                 (UTC) (F)     (DEG/KT/KT) (MB)    (FT/S)
W MID LAKE BUOY  1150   42 45  250/ 12/ 16 1017.2R
DEVILS ISLAND    1200   40     280/ 10/ 11 1017.8F
PORT WING        1200   39     210/  5/  7 1017.9
SAXON HARBOR     1200   40     220/  1/  4 1017.6F
$$

LMZ867-665-643>646-301400-
LAKE MICHIGAN

STATION/POSITION TIME  TEMP    WIND        PRES    WAVE
                       AIR SEA DIR/SP/G            HT/PER
                 (UTC) (F)     (DEG/KT/KT) (MB)    (FT/S)
CHAMBERS ISLAND  1200   43     190/  2/  5 1018.3F
N MID LAKE BUOY  1150   44 51  160/  2/  4 1018.8R   0
NORTHPORT PIER   1200   43      CALM  /  1 1018.3S
KEWAUNEE LAKESHO 1200   38     300/  4/  5 1017.8F
SHEBOYGAN LAKESH 1200   38 50  240/  6/  7 1020.0F
PORT WASHINGTON  1240   38     270/  4/  7 1020.0F
ATWATER BUOY     1200   42     230/ 10/ 10 1020.5F
MILWAUKEE LAKESH 1200   41     230/  8/ 10   N/A
S MID LAKE BUOY  1150   47 53  240/ 10/ 10 1020.3R   1/ 5
KENOSHA   LAKESH 1200   39     250/  7/  9 1020.0S
$$

TC  - TEMPERATURE IN CELSIUS
VSB - VISIBILITY IN STATUTE MILES
WCI - WIND CHILL INDEX
HX  - HEAT INDEX





U.S. Dept. of Commerce
NOAA National Weather Service
1325 East West Highway
Silver Spring, MD 20910
E-mail: w-nws.webmaster@noaa.gov
Page last modified: May 16, 2007
NATIONAL WEATHER SERVICE: for Safety, for Work, for Fun - FOR LIFE